Corona, CA

7:54 AM PDT on August 23, 2017 (GMT -0700)
Corona Municipal

Weather History for KAJO - May, 2014

Change the Weather History Date:

Thursday, May 15, 2014

  Actual Average (KCNO) Record (KCNO)
Temperature  
Mean Temperature 76 °F -  
Max Temperature 104 °F 76 °F 102 °F (2014)
Min Temperature 47 °F 49 °F 46 °F (2000)
Cooling Degree Days 10    
Growing Degree Days 26 (Base 50)    
Moisture  
Dew Point 29 °F    
Average Humidity 26    
Maximum Humidity 63    
Minimum Humidity 4    
Precipitation  
Precipitation 0.00 in - - ()
Sea Level Pressure  
Sea Level Pressure 29.98 in    
Wind  
Wind Speed 2 mph (WNW)    
Max Wind Speed 13 mph    
Max Gust Speed 21 mph    
Visibility 10 miles    
Events      
Averages and records for this station are not official NWS values.
T = Trace of Precipitation, MM = Missing Value Source: NWS Daily Summary

Daily Weather History Graph

Daily Weather History Graph

Search for Another Location

Airport or City:

Trip Planner

Search our weather history database for the weather conditions in past years. The results will help you decide how hot, cold, wet, or windy it might be!

Date:

Astronomy

May. 15, 2014 Rise Set
Actual Time 5:49 AM PDT 7:44 PM PDT
Civil Twilight 5:21 AM PDT 8:12 PM PDT
Nautical Twilight 4:48 AM PDT 8:46 PM PDT
Astronomical Twilight 4:12 AM PDT 9:21 PM PDT
Moon 8:57 PM PDT (5/15) 6:39 AM PDT (5/15)
Length of Visible Light 14h 50m
Length of Day
13h 55m
Full, 99% of the Moon is Illuminated
May 15
Full
May 21
Last Quarter
May 28
New
Jun 5
First Quarter
Jun 12
Full

Hourly Weather History & Observations

Time (PDT) Temp. Dew Point Humidity Pressure Visibility Wind Dir Wind Speed Gust Speed Precip Events Conditions
12:56 AM 63.0 °F 37.9 °F 40% 30.00 in 10.0 mi Calm Calm - N/A   Clear
1:56 AM 55.9 °F 36.0 °F 47% 30.00 in 10.0 mi Calm Calm - N/A   Clear
2:56 AM 54.9 °F 38.8 °F 55% 30.00 in 10.0 mi Calm Calm - N/A   Clear
3:56 AM 52.0 °F 36.0 °F 54% 30.00 in 10.0 mi Calm Calm - N/A   Clear
4:56 AM 48.9 °F 34.9 °F 58% 30.00 in 10.0 mi Calm Calm - N/A   Clear
5:56 AM 47.8 °F 36.0 °F 63% 30.01 in 10.0 mi Calm Calm - N/A   Clear
6:56 AM 54.9 °F 41.0 °F 60% 30.03 in 10.0 mi Calm Calm - N/A   Clear
7:56 AM 68.9 °F 39.9 °F 35% 30.03 in 3.0 mi Calm Calm - N/A   Haze
8:56 AM 77.0 °F 43.0 °F 30% 30.03 in 10.0 mi Calm Calm - N/A   Clear
9:56 AM 86.0 °F 43.9 °F 23% 30.02 in 10.0 mi Calm Calm - N/A   Clear
10:56 AM 97.9 °F 18.1 °F 6% 30.01 in 10.0 mi Variable 3.5 mph - N/A   Clear
11:56 AM 99.9 °F 13.1 °F 4% 29.99 in 10.0 mi Variable 5.8 mph - N/A   Clear
12:56 PM 101.8 °F 19.0 °F 5% 29.97 in 10.0 mi NNE 10.4 mph - N/A   Partly Cloudy
1:56 PM 104.0 °F 13.1 °F 4% 29.94 in 10.0 mi NNE 6.9 mph - N/A   Clear
2:56 PM 101.8 °F 18.1 °F 5% 29.94 in 10.0 mi WSW 12.7 mph 18.4 mph N/A   Clear
3:56 PM 100.9 °F 17.1 °F 5% 29.92 in 10.0 mi WSW 11.5 mph 19.6 mph N/A   Clear
4:56 PM 99.0 °F 16.2 °F 5% 29.92 in 10.0 mi West 12.7 mph 18.4 mph N/A   Clear
5:56 PM 97.9 °F 12.0 °F 4% 29.91 in 10.0 mi West 11.5 mph 20.7 mph N/A   Clear
6:56 PM 93.9 °F 23.0 °F 8% 29.92 in 10.0 mi West 8.1 mph - N/A   Clear
7:56 PM 86.0 °F 24.1 °F 10% 29.94 in 10.0 mi Calm Calm - N/A   Clear
8:56 PM 81.9 °F 24.1 °F 12% 29.94 in 10.0 mi WNW 3.5 mph - N/A   Clear
9:56 PM 72.0 °F 30.0 °F 21% 29.96 in 10.0 mi Calm Calm - N/A   Clear
10:56 PM 66.9 °F 34.0 °F 30% 29.97 in 10.0 mi East 3.5 mph - N/A   Clear
11:56 PM 65.8 °F 38.8 °F 37% 29.97 in 10.0 mi Calm Calm - N/A   Clear